[[{"header":{"parameterUnit":"m.s-1","parameterCategory":2,"la1":30.2991,"la2":30.254,"lo1":-89.0895,"lo2":-89.0444,"dy":0.0017,"dx":0.0017,"nx":28,"ny":28,"refTime":"2023-11-01T09:00:00:Z","depth":"0","parameterNumber":2,"parameterNumberName":"U-component_of_CURRENTS"},"data":[0,0,0,0,0,0,0,0,0,0,0,0,0,0,0,0,0,0,0,0,0,0,0,0,0,0,0,0,0,0,0,0,0,0,0,0,0,0,0,0,0,0,0,0,0,0,0,0,0,0,0,0,0,0,0,0,0,0,-0.2282,-0.2282,0,-0.2248,-0.2248,-0.2247,-0.2206,-0.2205,-0.2204,-0.2204,-0.219,-0.219,-0.2191,0,0,0,0,0,0,0,0,0,0,0,0,0,-0.2378,-0.2376,-0.2282,-0.2282,-0.2282,-0.2248,-0.2248,-0.2247,-0.2206,-0.2205,-0.2204,-0.2204,-0.219,-0.219,-0.2191,0,0,0,0,0,0,0,0,0,0,0,0,0,-0.2338,-0.2375,-0.2282,-0.2258,-0.2256,-0.2248,-0.2248,-0.2247,-0.2206,-0.2205,-0.2204,-0.2203,-0.219,-0.219,-0.2191,-0.2207,0,0,-0.2191,-0.2191,0,0,0,0,0,0,0,0,-0.234,-0.2334,-0.2262,-0.226,-0.2257,-0.2231,-0.2276,-0.2235,-0.2206,-0.2223,-0.2204,-0.2203,-0.2208,-0.2206,-0.2199,-0.2207,-0.2206,-0.2191,-0.2191,-0.2191,-0.2191,0,0,0,0,0,0,0,-0.2343,-0.2336,-0.2267,-0.2262,-0.2259,-0.2272,-0.2264,-0.2268,-0.222,-0.2222,-0.2219,-0.2218,-0.2206,-0.2199,-0.2199,-0.2206,-0.2191,-0.2191,-0.2191,-0.2192,-0.223,-0.2231,0,0,0,0,0,0,-0.2347,-0.2338,-0.2268,-0.2266,-0.2299,-0.227,-0.2262,-0.2239,-0.2219,-0.2215,-0.2218,-0.2216,-0.2199,-0.2199,-0.2198,-0.2205,-0.2191,-0.2192,-0.2192,-0.2229,-0.2231,-0.2232,0,0,0,0,0,0,-0.2348,-0.234,-0.227,-0.2304,-0.2296,-0.2269,-0.2244,-0.2239,-0.2225,-0.2216,-0.2213,-0.2209,-0.2199,-0.2198,-0.2197,-0.2205,-0.2192,-0.2192,-0.2228,-0.223,-0.2231,-0.2227,0,0,0,0,0,0,-0.2351,-0.234,-0.232,-0.2303,-0.2294,-0.2259,-0.2245,-0.2239,-0.2226,-0.2223,-0.2208,-0.2205,-0.2198,-0.2196,-0.2197,-0.2205,-0.2192,-0.2227,-0.2229,-0.2231,-0.2226,-0.2228,-0.223,0,0,0,0,0,-0.2354,-0.2325,-0.2319,-0.231,-0.2268,-0.2259,-0.2255,-0.2234,-0.2227,-0.2219,-0.2211,-0.2206,-0.2208,-0.2197,-0.2197,-0.2206,-0.2226,-0.2229,-0.2231,-0.2225,-0.2228,-0.223,0,0,0,0,0,0,-0.2352,-0.2318,-0.231,-0.2271,-0.2266,-0.2252,-0.2238,-0.2235,-0.2222,-0.2218,-0.221,-0.2208,-0.2213,-0.2215,-0.2203,-0.2225,-0.222,-0.2222,-0.2216,-0.2218,-0.222,-0.2217,-0.2192,0,0,0,0,0,-0.2345,-0.2308,-0.2299,-0.2265,-0.2265,-0.2255,-0.2248,-0.224,-0.2231,-0.2224,-0.2217,-0.2218,-0.2225,-0.2224,-0.2228,-0.2236,-0.2235,-0.2246,-0.2248,-0.225,-0.2249,-0.2257,-0.2259,-0.2238,-0.2238,-0.2238,0,0,-0.2331,-0.231,-0.2287,-0.2262,-0.2254,-0.2255,-0.2247,-0.2236,-0.2236,-0.2227,-0.2219,-0.2223,-0.223,-0.2236,-0.224,-0.2235,-0.2256,-0.2252,-0.2253,-0.2252,-0.226,-0.2261,-0.2263,-0.224,-0.224,-0.2239,0,0,-0.2299,-0.2274,-0.2244,-0.2247,-0.2241,-0.2243,-0.2243,-0.2238,-0.2233,-0.2235,-0.2233,-0.224,-0.2243,-0.2249,-0.2255,-0.2274,-0.2267,-0.228,-0.2283,-0.2291,-0.2292,-0.2293,-0.2291,-0.2292,-0.228,-0.228,-0.228,0,-0.2285,-0.2249,-0.2238,-0.223,-0.2232,-0.2242,-0.2238,-0.2241,-0.2236,-0.2237,-0.2232,-0.2248,-0.2251,-0.2267,-0.2272,-0.2277,-0.2275,-0.2268,-0.2291,-0.2293,-0.2294,-0.2291,-0.2292,-0.228,-0.228,-0.228,-0.228,0,-0.2248,-0.2229,-0.2218,-0.2208,-0.2212,-0.221,-0.2228,-0.2232,-0.2236,-0.224,-0.2252,-0.2259,-0.2267,-0.2277,-0.2277,-0.2295,-0.2288,-0.2291,-0.2279,-0.2295,-0.2292,-0.2293,-0.228,-0.228,-0.228,-0.228,0,0,-0.2192,-0.2189,-0.2186,-0.2185,-0.2204,-0.22,-0.2218,-0.2231,-0.224,-0.2246,-0.2254,-0.2271,-0.2275,-0.2283,-0.2292,-0.2301,-0.2307,-0.2297,-0.2298,-0.2284,-0.2314,-0.2306,-0.2306,-0.2309,-0.2309,-0.231,-0.2306,0,-0.2168,-0.2143,-0.2158,-0.2153,-0.2148,-0.2182,-0.2198,-0.2215,-0.2233,-0.2247,-0.2266,-0.2275,-0.2279,-0.2284,-0.2295,-0.2309,-0.2311,-0.2307,-0.231,-0.231,-0.2292,-0.2308,-0.229,-0.2285,-0.2307,-0.2307,-0.2307,0,-0.2136,-0.2121,-0.2106,-0.2123,-0.2127,-0.2133,-0.2162,-0.2178,-0.2218,-0.2233,-0.2253,-0.2271,-0.2292,-0.2291,-0.2313,-0.2308,-0.2309,-0.2315,-0.2316,-0.231,-0.2304,-0.2276,-0.2286,-0.225,-0.2309,-0.2309,-0.2309,0,-0.2094,-0.2092,-0.2073,-0.208,-0.2102,-0.2106,-0.2121,-0.2162,-0.218,-0.2218,-0.2239,-0.2266,-0.228,-0.2292,-0.2312,-0.2309,-0.2331,-0.233,-0.232,-0.2319,-0.2307,-0.2304,-0.2274,-0.2337,-0.2337,-0.2337,-0.2337,0,-0.2066,-0.2053,-0.2048,-0.2039,-0.2029,-0.2061,-0.2068,-0.2099,-0.2145,-0.2169,-0.2219,-0.2249,-0.2281,-0.2304,-0.2312,-0.2322,-0.2329,-0.2322,-0.2321,-0.2305,-0.2303,-0.2273,-0.2248,-0.2336,-0.2336,-0.2336,-0.2336,0,-0.2031,-0.2028,-0.2006,-0.2008,-0.2007,-0.1995,-0.2026,-0.2038,-0.2095,-0.2132,-0.2145,-0.2227,-0.2271,-0.23,-0.2325,-0.232,-0.2285,-0.2327,-0.2303,-0.2299,-0.2256,-0.2233,-0.2129,-0.2076,-0.2316,-0.2316,-0.2316,0,-0.2014,-0.1996,-0.197,-0.1947,-0.1944,-0.1936,-0.1939,-0.1995,-0.2018,-0.2121,-0.2137,-0.2206,-0.2264,-0.2307,-0.2337,-0.2354,-0.2274,-0.2298,-0.2295,-0.2251,-0.2224,-0.2144,-0.2101,-0.2274,-0.2273,-0.2273,-0.2273,0,-0.198,-0.1965,-0.1936,-0.1888,-0.1868,-0.1854,-0.1864,-0.1883,-0.1963,-0.2026,-0.2112,-0.2174,-0.2275,-0.232,-0.2344,-0.2335,-0.2223,-0.2289,-0.2254,-0.2196,-0.2097,-0.2047,-0.2271,-0.2269,-0.2269,-0.227,-0.227,-0.227,-0.1941,-0.1909,-0.186,-0.1813,-0.1783,-0.1752,-0.173,-0.1791,-0.1836,-0.1941,-0.205,-0.2174,-0.2268,-0.2343,-0.2319,-0.2271,-0.223,-0.2206,-0.2182,-0.2106,-0.2045,-0.2256,-0.225,-0.225,-0.225,-0.225,-0.225,0,-0.1868,-0.1832,-0.1791,-0.1713,-0.1649,-0.166,-0.1662,-0.1657,-0.1703,-0.1886,-0.1993,-0.2195,-0.2243,-0.2292,-0.2294,-0.219,-0.2103,-0.2097,-0.199,-0.1955,-0.2164,-0.2156,-0.2117,-0.2117,-0.2117,-0.2118,-0.2118,-0.2118,-0.1816,-0.1744,-0.172,-0.1583,-0.1533,-0.144,-0.142,-0.1465,-0.1572,-0.1776,-0.1971,-0.2178,-0.2342,-0.2339,-0.2199,-0.2091,-0.1943,-0.188,-0.1831,-0.201,-0.2018,-0.2026,-0.2013,-0.1945,-0.1945,-0.159,-0.1587,-0.1585]},{"header":{"parameterUnit":"m.s-1","parameterCategory":2,"la1":30.2991,"la2":30.254,"lo1":-89.0895,"lo2":-89.0444,"dy":0.0017,"dx":0.0017,"nx":28,"ny":28,"refTime":"2023-11-01T09:00:00:Z","depth":"0","parameterNumber":3,"parameterNumberName":"V-component_of_CURRENTS"},"data":[0,0,0,0,0,0,0,0,0,0,0,0,0,0,0,0,0,0,0,0,0,0,0,0,0,0,0,0,0,0,0,0,0,0,0,0,0,0,0,0,0,0,0,0,0,0,0,0,0,0,0,0,0,0,0,0,0,0,-0.0593,-0.0592,0,-0.0497,-0.0496,-0.0495,-0.0452,-0.0452,-0.0452,-0.0452,-0.0404,-0.0403,-0.0402,0,0,0,0,0,0,0,0,0,0,0,0,0,-0.0853,-0.0848,-0.0593,-0.0592,-0.059,-0.0497,-0.0496,-0.0495,-0.0452,-0.0452,-0.0452,-0.0451,-0.0405,-0.0403,-0.0402,0,0,0,0,0,0,0,0,0,0,0,0,0,-0.075,-0.0847,-0.0593,-0.0556,-0.0551,-0.0497,-0.0496,-0.0495,-0.0452,-0.0452,-0.0452,-0.0451,-0.0405,-0.0403,-0.0402,-0.0395,0,0,-0.0396,-0.0396,0,0,0,0,0,0,0,0,-0.0755,-0.074,-0.0563,-0.0558,-0.0553,-0.0484,-0.057,-0.0463,-0.0452,-0.0493,-0.0452,-0.0451,-0.0434,-0.043,-0.0415,-0.0393,-0.0391,-0.0396,-0.0395,-0.0395,-0.0394,0,0,0,0,0,0,0,-0.0762,-0.0745,-0.0558,-0.0561,-0.0555,-0.0582,-0.0566,-0.055,-0.0469,-0.0489,-0.0485,-0.047,-0.0432,-0.0417,-0.0414,-0.039,-0.0396,-0.0395,-0.0394,-0.0393,-0.0381,-0.0382,0,0,0,0,0,0,-0.0762,-0.075,-0.0561,-0.0555,-0.0653,-0.0577,-0.056,-0.0508,-0.0467,-0.046,-0.047,-0.0468,-0.042,-0.0416,-0.0412,-0.0418,-0.0395,-0.0393,-0.0392,-0.0381,-0.0381,-0.0382,0,0,0,0,0,0,-0.0767,-0.0744,-0.0565,-0.0651,-0.063,-0.0571,-0.0515,-0.0507,-0.049,-0.0452,-0.0446,-0.0462,-0.042,-0.0415,-0.0406,-0.0415,-0.0392,-0.0391,-0.038,-0.0381,-0.0382,-0.0419,0,0,0,0,0,0,-0.0774,-0.0746,-0.0715,-0.0649,-0.0625,-0.0536,-0.0515,-0.0505,-0.0479,-0.0476,-0.0443,-0.0438,-0.0419,-0.0409,-0.0404,-0.0412,-0.0389,-0.0379,-0.038,-0.0381,-0.0417,-0.0421,-0.0425,0,0,0,0,0,-0.0784,-0.0738,-0.0713,-0.0691,-0.0579,-0.0535,-0.0526,-0.0488,-0.0479,-0.0473,-0.0457,-0.0439,-0.0414,-0.0408,-0.0402,-0.041,-0.0378,-0.038,-0.0381,-0.0415,-0.042,-0.0425,0,0,0,0,0,0,-0.0827,-0.0726,-0.0699,-0.062,-0.0584,-0.0527,-0.0512,-0.0491,-0.0472,-0.0472,-0.0444,-0.0439,-0.0436,-0.042,-0.0414,-0.0412,-0.0395,-0.0395,-0.0422,-0.0427,-0.0431,-0.0437,-0.0388,0,0,0,0,0,-0.0822,-0.0763,-0.069,-0.0632,-0.0613,-0.0567,-0.0546,-0.0522,-0.0492,-0.0482,-0.046,-0.0445,-0.0438,-0.043,-0.0418,-0.0414,-0.0399,-0.0418,-0.0422,-0.0425,-0.0428,-0.0418,-0.0421,-0.0387,-0.0387,-0.0387,0,0,-0.0823,-0.0761,-0.0726,-0.064,-0.0608,-0.0589,-0.0554,-0.0522,-0.0516,-0.0482,-0.0473,-0.0457,-0.0441,-0.0439,-0.0436,-0.0426,-0.0427,-0.0427,-0.043,-0.0431,-0.042,-0.0423,-0.0426,-0.0388,-0.0388,-0.0388,0,0,-0.0817,-0.0743,-0.0707,-0.0681,-0.063,-0.0603,-0.0597,-0.0546,-0.0533,-0.052,-0.0502,-0.0493,-0.0472,-0.0464,-0.0458,-0.0478,-0.045,-0.0474,-0.0496,-0.0487,-0.0489,-0.0491,-0.0476,-0.0476,-0.0474,-0.0474,-0.0475,0,-0.0829,-0.0762,-0.0698,-0.0676,-0.0662,-0.0615,-0.0608,-0.0585,-0.0543,-0.054,-0.0525,-0.0503,-0.0486,-0.049,-0.0496,-0.0486,-0.0473,-0.0478,-0.0491,-0.0493,-0.0495,-0.0478,-0.0478,-0.0476,-0.0476,-0.0476,-0.0476,0,-0.0807,-0.0768,-0.0753,-0.0704,-0.0685,-0.0669,-0.0634,-0.0622,-0.0603,-0.0581,-0.0575,-0.0549,-0.0537,-0.0532,-0.0518,-0.0524,-0.0509,-0.0499,-0.0478,-0.05,-0.0482,-0.0481,-0.0479,-0.0479,-0.0478,-0.0477,0,0,-0.0808,-0.0748,-0.0747,-0.0744,-0.0702,-0.0686,-0.0682,-0.0663,-0.0666,-0.063,-0.0633,-0.0614,-0.0593,-0.0586,-0.0566,-0.0554,-0.0551,-0.0532,-0.053,-0.0514,-0.0525,-0.052,-0.0518,-0.0541,-0.0541,-0.0542,-0.0507,0,-0.0821,-0.0793,-0.0761,-0.0765,-0.0755,-0.0728,-0.0733,-0.0715,-0.0694,-0.0685,-0.0655,-0.0649,-0.0616,-0.0612,-0.0596,-0.0562,-0.0551,-0.0561,-0.0508,-0.0506,-0.0497,-0.0518,-0.0596,-0.0573,-0.0506,-0.0506,-0.0506,0,-0.0823,-0.0804,-0.0802,-0.0799,-0.0795,-0.0798,-0.08,-0.0793,-0.0771,-0.0755,-0.0733,-0.0706,-0.0683,-0.0654,-0.0602,-0.0609,-0.0574,-0.0544,-0.0542,-0.0524,-0.05,-0.0541,-0.0574,-0.0585,-0.0505,-0.0505,-0.0505,0,-0.0863,-0.0843,-0.0845,-0.0841,-0.0824,-0.0835,-0.0833,-0.0819,-0.0823,-0.0796,-0.0797,-0.0755,-0.0739,-0.0687,-0.0616,-0.0612,-0.0555,-0.0543,-0.0506,-0.0504,-0.0554,-0.0557,-0.0592,-0.0517,-0.0517,-0.0517,-0.0517,0,-0.089,-0.0899,-0.0866,-0.0868,-0.0896,-0.0872,-0.0901,-0.0887,-0.0879,-0.0898,-0.0837,-0.0842,-0.0747,-0.07,-0.0633,-0.0562,-0.0567,-0.0514,-0.0499,-0.0569,-0.0573,-0.057,-0.0564,-0.0516,-0.0516,-0.0516,-0.0517,0,-0.094,-0.0912,-0.0919,-0.0906,-0.0912,-0.0931,-0.0947,-0.0968,-0.0946,-0.0968,-0.0965,-0.0905,-0.0843,-0.0745,-0.0655,-0.0593,-0.0531,-0.0498,-0.0579,-0.0574,-0.0552,-0.0545,-0.0485,-0.0524,-0.0459,-0.0458,-0.0458,0,-0.0969,-0.097,-0.0953,-0.0966,-0.0967,-0.099,-0.1018,-0.1005,-0.1026,-0.1017,-0.1037,-0.0976,-0.0959,-0.0805,-0.0681,-0.0563,-0.0538,-0.0549,-0.0559,-0.0568,-0.0549,-0.0491,-0.0526,-0.0638,-0.0639,-0.064,-0.0641,0,-0.103,-0.1011,-0.1003,-0.1025,-0.1052,-0.1084,-0.1117,-0.1147,-0.1144,-0.1173,-0.119,-0.1174,-0.1024,-0.0945,-0.0761,-0.0669,-0.0584,-0.0565,-0.0568,-0.0688,-0.0637,-0.0663,-0.0631,-0.065,-0.065,-0.0649,-0.0648,-0.0648,-0.1079,-0.108,-0.1062,-0.1091,-0.112,-0.1176,-0.1228,-0.128,-0.1339,-0.1422,-0.135,-0.1401,-0.1219,-0.0982,-0.0856,-0.0696,-0.0642,-0.0673,-0.066,-0.0596,-0.065,-0.0628,-0.0632,-0.0631,-0.063,-0.0629,-0.0628,0,-0.1141,-0.1124,-0.1142,-0.1166,-0.1217,-0.1215,-0.1296,-0.1371,-0.1485,-0.1587,-0.1632,-0.1597,-0.1436,-0.1219,-0.0942,-0.083,-0.0784,-0.077,-0.0746,-0.0777,-0.0769,-0.0798,-0.0849,-0.0849,-0.0849,-0.0849,-0.0849,-0.0849,-0.1169,-0.1181,-0.1174,-0.1252,-0.1276,-0.1371,-0.1425,-0.1555,-0.1661,-0.1863,-0.1944,-0.1958,-0.1694,-0.1223,-0.0962,-0.0886,-0.0866,-0.0809,-0.0782,-0.0823,-0.0814,-0.0805,-0.0832,-0.089,-0.089,-0.0834,-0.0834,-0.0833]}],[{"header":{"parameterUnit":"m.s-1","parameterCategory":2,"la1":30.2991,"la2":30.254,"lo1":-89.0895,"lo2":-89.0444,"dy":0.0017,"dx":0.0017,"nx":28,"ny":28,"refTime":"2023-11-01T09:00:00:Z","depth":"2","parameterNumber":2,"parameterNumberName":"U-component_of_CURRENTS"},"data":[0,0,0,0,0,0,0,0,0,0,0,0,0,0,0,0,0,0,0,0,0,0,0,0,0,0,0,0,0,0,0,0,0,0,0,0,0,0,0,0,0,0,0,0,0,0,0,0,0,0,0,0,0,0,0,0,0,0,-0.2278,-0.2278,0,-0.2245,-0.2244,-0.2244,-0.2203,-0.2203,-0.2202,-0.2202,-0.2189,-0.2189,-0.2189,0,0,0,0,0,0,0,0,0,0,0,0,0,-0.2374,-0.2372,-0.2278,-0.2278,-0.2278,-0.2245,-0.2244,-0.2244,-0.2203,-0.2202,-0.2202,-0.2201,-0.2189,-0.2189,-0.2189,0,0,0,0,0,0,0,0,0,0,0,0,0,-0.2334,-0.2371,-0.2278,-0.2254,-0.2252,-0.2245,-0.2244,-0.2244,-0.2203,-0.2202,-0.2202,-0.2201,-0.2189,-0.2189,-0.2189,-0.2206,0,0,-0.219,-0.219,0,0,0,0,0,0,0,0,-0.2337,-0.2331,-0.2258,-0.2256,-0.2253,-0.2229,-0.2274,-0.2232,-0.2203,-0.222,-0.2202,-0.2201,-0.2206,-0.2204,-0.2197,-0.2205,-0.2205,-0.219,-0.219,-0.219,-0.219,0,0,0,0,0,0,0,-0.2339,-0.2332,-0.2264,-0.2258,-0.2255,-0.2269,-0.2261,-0.2266,-0.2217,-0.2219,-0.2216,-0.2215,-0.2204,-0.2197,-0.2197,-0.2204,-0.219,-0.219,-0.219,-0.219,-0.2229,-0.223,0,0,0,0,0,0,-0.2343,-0.2334,-0.2265,-0.2263,-0.2296,-0.2267,-0.2259,-0.2236,-0.2216,-0.2213,-0.2216,-0.2213,-0.2197,-0.2197,-0.2196,-0.2204,-0.219,-0.219,-0.219,-0.2228,-0.223,-0.2231,0,0,0,0,0,0,-0.2345,-0.2336,-0.2266,-0.2301,-0.2293,-0.2266,-0.2241,-0.2236,-0.2222,-0.2214,-0.221,-0.2206,-0.2197,-0.2196,-0.2195,-0.2204,-0.219,-0.219,-0.2227,-0.2229,-0.223,-0.2227,0,0,0,0,0,0,-0.2347,-0.2337,-0.2316,-0.23,-0.2291,-0.2255,-0.2242,-0.2236,-0.2224,-0.222,-0.2205,-0.2203,-0.2196,-0.2195,-0.2195,-0.2204,-0.2191,-0.2226,-0.2228,-0.223,-0.2226,-0.2228,-0.223,0,0,0,0,0,-0.2351,-0.2321,-0.2315,-0.2307,-0.2264,-0.2255,-0.2252,-0.2231,-0.2224,-0.2216,-0.2209,-0.2203,-0.2207,-0.2195,-0.2196,-0.2204,-0.2225,-0.2228,-0.223,-0.2225,-0.2227,-0.223,0,0,0,0,0,0,-0.2348,-0.2314,-0.2307,-0.2267,-0.2262,-0.2249,-0.2235,-0.2232,-0.222,-0.2215,-0.2208,-0.2206,-0.2211,-0.2213,-0.2201,-0.2224,-0.2219,-0.2221,-0.2215,-0.2217,-0.2219,-0.2215,-0.2191,0,0,0,0,0,-0.2341,-0.2304,-0.2295,-0.2261,-0.2261,-0.2252,-0.2244,-0.2237,-0.2229,-0.2221,-0.2215,-0.2216,-0.2223,-0.2222,-0.2226,-0.2235,-0.2234,-0.2245,-0.2247,-0.2249,-0.2248,-0.2256,-0.2258,-0.2237,-0.2237,-0.2237,0,0,-0.2328,-0.2306,-0.2283,-0.2259,-0.2251,-0.2251,-0.2244,-0.2233,-0.2234,-0.2225,-0.2217,-0.2221,-0.2228,-0.2235,-0.2239,-0.2234,-0.2255,-0.2251,-0.2252,-0.2251,-0.2259,-0.2261,-0.2262,-0.2239,-0.2239,-0.2238,0,0,-0.2296,-0.227,-0.224,-0.2244,-0.2238,-0.224,-0.224,-0.2235,-0.223,-0.2232,-0.2231,-0.2238,-0.2242,-0.2248,-0.2254,-0.2273,-0.2266,-0.228,-0.2282,-0.229,-0.2292,-0.2293,-0.229,-0.2291,-0.2279,-0.2279,-0.2279,0,-0.2281,-0.2246,-0.2234,-0.2227,-0.2229,-0.2238,-0.2235,-0.2239,-0.2234,-0.2235,-0.223,-0.2246,-0.225,-0.2266,-0.2272,-0.2277,-0.2274,-0.2268,-0.2291,-0.2292,-0.2293,-0.229,-0.2291,-0.2279,-0.2279,-0.2279,-0.2279,0,-0.2245,-0.2226,-0.2215,-0.2205,-0.2209,-0.2207,-0.2225,-0.223,-0.2233,-0.2238,-0.225,-0.2257,-0.2266,-0.2276,-0.2277,-0.2295,-0.2288,-0.2291,-0.2279,-0.2295,-0.2291,-0.2292,-0.2279,-0.2279,-0.2279,-0.2279,0,0,-0.2188,-0.2186,-0.2183,-0.2182,-0.2201,-0.2197,-0.2216,-0.2228,-0.2238,-0.2244,-0.2252,-0.227,-0.2274,-0.2282,-0.2291,-0.23,-0.2307,-0.2297,-0.2297,-0.2284,-0.2314,-0.2305,-0.2305,-0.2309,-0.2309,-0.231,-0.2306,0,-0.2165,-0.214,-0.2155,-0.215,-0.2145,-0.2179,-0.2195,-0.2213,-0.2231,-0.2245,-0.2264,-0.2274,-0.2278,-0.2283,-0.2294,-0.2309,-0.2311,-0.2307,-0.231,-0.231,-0.2292,-0.2307,-0.2095,-0.2073,-0.2307,-0.2307,-0.2307,0,-0.2133,-0.2117,-0.2103,-0.212,-0.2124,-0.213,-0.216,-0.2176,-0.2216,-0.2231,-0.2252,-0.2269,-0.2291,-0.2291,-0.2312,-0.2308,-0.2308,-0.2315,-0.2315,-0.2308,-0.2303,-0.2098,-0.2066,-0.2309,-0.2309,-0.2308,-0.2308,0,-0.2091,-0.2089,-0.2071,-0.2077,-0.21,-0.2104,-0.2119,-0.216,-0.2178,-0.2217,-0.2238,-0.2265,-0.2279,-0.2291,-0.2311,-0.2309,-0.233,-0.233,-0.232,-0.2318,-0.214,-0.2123,-0.2336,-0.2336,-0.2336,-0.2336,-0.2336,0,-0.2063,-0.2051,-0.2045,-0.2037,-0.2026,-0.2059,-0.2066,-0.2097,-0.2143,-0.2168,-0.2218,-0.2248,-0.228,-0.2303,-0.2311,-0.2321,-0.2329,-0.2321,-0.232,-0.2135,-0.2119,-0.2327,-0.2326,-0.2336,-0.2336,-0.2336,-0.2336,0,-0.2028,-0.2025,-0.2003,-0.2005,-0.2004,-0.1993,-0.2024,-0.2036,-0.2093,-0.213,-0.2143,-0.2226,-0.2269,-0.2299,-0.2324,-0.2319,-0.2329,-0.2326,-0.2107,-0.2082,-0.2309,-0.2308,-0.2314,-0.2314,-0.2314,-0.2314,-0.2314,0,-0.2012,-0.1993,-0.1967,-0.1944,-0.1941,-0.1934,-0.1937,-0.1993,-0.2016,-0.2119,-0.2134,-0.2204,-0.2251,-0.2295,-0.2267,-0.2267,-0.2332,-0.2093,-0.2063,-0.231,-0.2308,-0.2308,-0.2307,-0.1814,-0.1809,-0.1806,-0.1803,0,-0.1978,-0.1963,-0.1934,-0.1885,-0.1866,-0.1852,-0.1862,-0.188,-0.1961,-0.2013,-0.2098,-0.2149,-0.2198,-0.212,-0.2123,-0.2093,-0.208,-0.2027,-0.2317,-0.1876,-0.1844,-0.1841,-0.1855,-0.1772,-0.1775,-0.1777,-0.1779,-0.178,-0.1939,-0.1908,-0.1858,-0.1811,-0.1781,-0.175,-0.1728,-0.1749,-0.1778,-0.181,-0.1955,-0.1961,-0.199,-0.1902,-0.1848,-0.1795,-0.1948,-0.1859,-0.1866,-0.1877,-0.1844,-0.1816,-0.1731,-0.1734,-0.1736,-0.1738,-0.174,0,-0.1848,-0.1831,-0.179,-0.1711,-0.163,-0.1658,-0.1659,-0.1604,-0.1585,-0.1643,-0.1677,-0.1576,-0.1537,-0.1585,-0.146,-0.1477,-0.1413,-0.1425,-0.1321,-0.1353,-0.1382,-0.132,-0.107,-0.1068,-0.1066,-0.1065,0,0,-0.1792,-0.1712,-0.1688,-0.1546,-0.1511,-0.1391,-0.1371,-0.1318,-0.1313,-0.1276,-0.128,-0.1377,-0.1508,-0.1256,-0.1228,-0.1135,-0.122,-0.1074,-0.1607,-0.1513,-0.1538,-0.1626,-0.1569,0,0,0,0,0]},{"header":{"parameterUnit":"m.s-1","parameterCategory":2,"la1":30.2991,"la2":30.254,"lo1":-89.0895,"lo2":-89.0444,"dy":0.0017,"dx":0.0017,"nx":28,"ny":28,"refTime":"2023-11-01T09:00:00:Z","depth":"2","parameterNumber":3,"parameterNumberName":"V-component_of_CURRENTS"},"data":[0,0,0,0,0,0,0,0,0,0,0,0,0,0,0,0,0,0,0,0,0,0,0,0,0,0,0,0,0,0,0,0,0,0,0,0,0,0,0,0,0,0,0,0,0,0,0,0,0,0,0,0,0,0,0,0,0,0,-0.0546,-0.0545,0,-0.0451,-0.045,-0.0449,-0.0407,-0.0407,-0.0406,-0.0406,-0.0359,-0.0358,-0.0357,0,0,0,0,0,0,0,0,0,0,0,0,0,-0.0807,-0.0802,-0.0546,-0.0545,-0.0543,-0.0451,-0.045,-0.0449,-0.0407,-0.0407,-0.0406,-0.0406,-0.036,-0.0358,-0.0357,0,0,0,0,0,0,0,0,0,0,0,0,0,-0.0703,-0.08,-0.0547,-0.0509,-0.0505,-0.0451,-0.045,-0.0448,-0.0407,-0.0407,-0.0406,-0.0406,-0.036,-0.0359,-0.0357,-0.035,0,0,-0.0352,-0.0351,0,0,0,0,0,0,0,0,-0.0709,-0.0694,-0.0516,-0.0512,-0.0507,-0.0438,-0.0524,-0.0417,-0.0407,-0.0447,-0.0406,-0.0406,-0.0389,-0.0384,-0.037,-0.0348,-0.0346,-0.0351,-0.035,-0.035,-0.0349,0,0,0,0,0,0,0,-0.0716,-0.0698,-0.0511,-0.0515,-0.0509,-0.0536,-0.0521,-0.0504,-0.0423,-0.0443,-0.0439,-0.0424,-0.0387,-0.0372,-0.0369,-0.0345,-0.0351,-0.035,-0.0349,-0.0348,-0.0336,-0.0336,0,0,0,0,0,0,-0.0715,-0.0704,-0.0514,-0.0508,-0.0606,-0.0531,-0.0514,-0.0462,-0.0422,-0.0414,-0.0425,-0.0423,-0.0375,-0.0371,-0.0367,-0.0373,-0.035,-0.0348,-0.0347,-0.0335,-0.0336,-0.0337,0,0,0,0,0,0,-0.072,-0.0698,-0.0518,-0.0605,-0.0583,-0.0526,-0.0469,-0.0461,-0.0444,-0.0407,-0.0401,-0.0417,-0.0374,-0.0369,-0.0361,-0.037,-0.0347,-0.0346,-0.0334,-0.0335,-0.0336,-0.0374,0,0,0,0,0,0,-0.0728,-0.0699,-0.0668,-0.0603,-0.0578,-0.0489,-0.0469,-0.0459,-0.0434,-0.0431,-0.0398,-0.0393,-0.0374,-0.0364,-0.0359,-0.0367,-0.0344,-0.0333,-0.0335,-0.0336,-0.0372,-0.0376,-0.038,0,0,0,0,0,-0.0737,-0.0691,-0.0666,-0.0644,-0.0533,-0.0489,-0.048,-0.0442,-0.0434,-0.0428,-0.0412,-0.0394,-0.0369,-0.0363,-0.0357,-0.0365,-0.0333,-0.0334,-0.0336,-0.037,-0.0375,-0.038,0,0,0,0,0,0,-0.078,-0.068,-0.0652,-0.0574,-0.0538,-0.0481,-0.0466,-0.0446,-0.0426,-0.0427,-0.0399,-0.0394,-0.0391,-0.0375,-0.0369,-0.0367,-0.0349,-0.035,-0.0377,-0.0382,-0.0386,-0.0392,-0.0343,0,0,0,0,0,-0.0775,-0.0716,-0.0643,-0.0586,-0.0567,-0.0521,-0.05,-0.0476,-0.0447,-0.0437,-0.0415,-0.04,-0.0393,-0.0385,-0.0373,-0.0369,-0.0354,-0.0372,-0.0376,-0.038,-0.0383,-0.0373,-0.0377,-0.0342,-0.0342,-0.0342,0,0,-0.0776,-0.0714,-0.068,-0.0594,-0.0562,-0.0543,-0.0508,-0.0477,-0.0471,-0.0437,-0.0428,-0.0413,-0.0396,-0.0393,-0.0391,-0.038,-0.0382,-0.0382,-0.0385,-0.0386,-0.0375,-0.0379,-0.0381,-0.0343,-0.0343,-0.0343,0,0,-0.0771,-0.0696,-0.0661,-0.0634,-0.0584,-0.0557,-0.0552,-0.0501,-0.0488,-0.0475,-0.0457,-0.0449,-0.0427,-0.0419,-0.0413,-0.0433,-0.0405,-0.0429,-0.0451,-0.0442,-0.0445,-0.0447,-0.0432,-0.0432,-0.0429,-0.0429,-0.043,0,-0.0783,-0.0716,-0.0652,-0.063,-0.0617,-0.0569,-0.0562,-0.054,-0.0499,-0.0495,-0.048,-0.0458,-0.0441,-0.0445,-0.0451,-0.0441,-0.0429,-0.0433,-0.0447,-0.0449,-0.045,-0.0434,-0.0434,-0.0431,-0.0431,-0.0431,-0.0431,0,-0.0761,-0.0722,-0.0707,-0.0658,-0.064,-0.0624,-0.0589,-0.0577,-0.0558,-0.0537,-0.0531,-0.0505,-0.0493,-0.0487,-0.0473,-0.048,-0.0464,-0.0454,-0.0434,-0.0456,-0.0438,-0.0437,-0.0434,-0.0434,-0.0433,-0.0433,0,0,-0.0762,-0.0702,-0.0702,-0.0698,-0.0657,-0.0641,-0.0637,-0.0618,-0.0621,-0.0586,-0.0589,-0.0569,-0.0549,-0.0542,-0.0521,-0.051,-0.0507,-0.0488,-0.0486,-0.0471,-0.0482,-0.0477,-0.0476,-0.0498,-0.0498,-0.0498,-0.0465,0,-0.0776,-0.0748,-0.0716,-0.072,-0.071,-0.0683,-0.0688,-0.067,-0.0649,-0.064,-0.0611,-0.0605,-0.0572,-0.0568,-0.0552,-0.0518,-0.0508,-0.0517,-0.0464,-0.0463,-0.0454,-0.0476,-0.0364,-0.0325,-0.0464,-0.0464,-0.0464,0,-0.0778,-0.0759,-0.0757,-0.0754,-0.075,-0.0754,-0.0755,-0.0748,-0.0726,-0.071,-0.0689,-0.0662,-0.0639,-0.0611,-0.0559,-0.0565,-0.0531,-0.0501,-0.0499,-0.0481,-0.0457,-0.0326,-0.0319,-0.0462,-0.0462,-0.0462,-0.0462,0,-0.0818,-0.0798,-0.0801,-0.0796,-0.0779,-0.0791,-0.0788,-0.0774,-0.0778,-0.0752,-0.0753,-0.0711,-0.0695,-0.0644,-0.0573,-0.0569,-0.0513,-0.0501,-0.0464,-0.0463,-0.0351,-0.034,-0.0475,-0.0475,-0.0475,-0.0475,-0.0476,0,-0.0845,-0.0855,-0.0822,-0.0824,-0.0852,-0.0828,-0.0858,-0.0843,-0.0835,-0.0854,-0.0794,-0.0798,-0.0704,-0.0658,-0.059,-0.0521,-0.0525,-0.0473,-0.0458,-0.0362,-0.0353,-0.0458,-0.0456,-0.0474,-0.0475,-0.0475,-0.0475,0,-0.0896,-0.0868,-0.0875,-0.0863,-0.0869,-0.0887,-0.0904,-0.0924,-0.0903,-0.0925,-0.0921,-0.0862,-0.08,-0.0702,-0.0614,-0.0551,-0.0481,-0.0457,-0.0348,-0.0323,-0.0432,-0.0433,-0.0419,-0.0419,-0.0419,-0.0419,-0.0418,0,-0.0925,-0.0926,-0.091,-0.0923,-0.0924,-0.0947,-0.0975,-0.0961,-0.0983,-0.0973,-0.0993,-0.0933,-0.0901,-0.0749,-0.0562,-0.0425,-0.0485,-0.0312,-0.0295,-0.0442,-0.0428,-0.043,-0.0431,-0.0151,-0.0149,-0.0147,-0.0145,0,-0.0987,-0.0968,-0.096,-0.0982,-0.1009,-0.1041,-0.1074,-0.1103,-0.11,-0.1109,-0.1126,-0.1097,-0.0893,-0.0672,-0.0464,-0.0375,-0.032,-0.0273,-0.0436,-0.0201,-0.0191,-0.0178,-0.0187,-0.0128,-0.013,-0.0131,-0.0132,-0.0133,-0.1036,-0.1037,-0.1019,-0.1048,-0.1077,-0.1132,-0.1184,-0.1152,-0.1182,-0.1132,-0.1159,-0.1032,-0.0834,-0.0461,-0.0309,-0.0142,-0.0201,-0.0166,-0.017,-0.0177,-0.017,-0.0162,-0.0091,-0.0093,-0.0094,-0.0095,-0.0096,0,-0.1026,-0.1082,-0.1099,-0.1123,-0.1109,-0.1172,-0.1252,-0.1205,-0.1184,-0.11,-0.1033,-0.0799,-0.0539,-0.0366,-0.0045,0.0063,0.0103,0.0045,0.0092,0.0075,0.006,0.0079,0.0224,0.0225,0.0225,0.0226,0,0,-0.1036,-0.1014,-0.1006,-0.1067,-0.1154,-0.1156,-0.1206,-0.1145,-0.1049,-0.0926,-0.0823,-0.065,-0.0501,-0.0227,-0.0042,0.0099,0.0048,0.0121,-0.0134,-0.0112,-0.0129,-0.0046,-0.0034,0,0,0,0,0]}],[{"header":{"parameterUnit":"m.s-1","parameterCategory":2,"la1":30.2991,"la2":30.254,"lo1":-89.0895,"lo2":-89.0444,"dy":0.0017,"dx":0.0017,"nx":28,"ny":28,"refTime":"2023-11-01T09:00:00:Z","depth":"4","parameterNumber":2,"parameterNumberName":"U-component_of_CURRENTS"},"data":[0,0,0,0,0,0,0,0,0,0,0,0,0,0,0,0,0,0,0,0,0,0,0,0,0,0,0,0,0,0,0,0,0,0,0,0,0,0,0,0,0,0,0,0,0,0,0,0,0,0,0,0,0,0,0,0,0,0,-0.1412,-0.1413,0,-0.148,-0.148,-0.1481,-0.1523,-0.1524,-0.1524,-0.1524,-0.1609,-0.1611,-0.1613,0,0,0,0,0,0,0,0,0,0,0,0,0,-0.1273,-0.1275,-0.1412,-0.1413,-0.1414,-0.1479,-0.148,-0.1481,-0.1523,-0.1524,-0.1524,-0.1524,-0.1608,-0.161,-0.1613,0,0,0,0,0,0,0,0,0,0,0,0,0,-0.1335,-0.1276,-0.1412,-0.1444,-0.1447,-0.1479,-0.148,-0.1481,-0.1523,-0.1524,-0.1524,-0.1525,-0.1607,-0.161,-0.1613,-0.162,0,0,-0.1622,-0.1623,0,0,0,0,0,0,0,0,-0.1331,-0.134,-0.1438,-0.1442,-0.1446,-0.1495,-0.1462,-0.1529,-0.1523,-0.1493,-0.1524,-0.1525,-0.1573,-0.1578,-0.1588,-0.1624,-0.1628,-0.1622,-0.1624,-0.1625,-0.1626,0,0,0,0,0,0,0,-0.1327,-0.1337,-0.1438,-0.1439,-0.1444,-0.1439,-0.1448,-0.1475,-0.1528,-0.1496,-0.1499,-0.1509,-0.1575,-0.1585,-0.159,-0.1629,-0.1622,-0.1625,-0.1626,-0.1627,-0.1742,-0.1744,0,0,0,0,0,0,-0.1324,-0.1333,-0.1436,-0.144,-0.139,-0.1441,-0.1452,-0.1477,-0.1528,-0.1536,-0.1508,-0.151,-0.158,-0.1587,-0.1593,-0.1663,-0.1625,-0.1628,-0.1629,-0.1741,-0.1743,-0.1744,0,0,0,0,0,0,-0.1321,-0.1333,-0.1433,-0.1388,-0.14,-0.1443,-0.1471,-0.1479,-0.151,-0.1537,-0.1546,-0.1535,-0.158,-0.1589,-0.1639,-0.1664,-0.1629,-0.1632,-0.174,-0.1742,-0.1743,-0.1765,0,0,0,0,0,0,-0.1317,-0.1332,-0.1359,-0.1388,-0.1403,-0.1462,-0.1471,-0.148,-0.1514,-0.1518,-0.1563,-0.157,-0.1582,-0.1634,-0.1641,-0.1668,-0.1634,-0.1738,-0.174,-0.1743,-0.1763,-0.1768,-0.1772,0,0,0,0,0,-0.1312,-0.134,-0.136,-0.1373,-0.1436,-0.1463,-0.147,-0.15,-0.1515,-0.153,-0.1566,-0.1569,-0.1655,-0.1638,-0.1646,-0.1674,-0.1737,-0.174,-0.1743,-0.1761,-0.1767,-0.1772,0,0,0,0,0,0,-0.1302,-0.1348,-0.137,-0.1416,-0.1444,-0.1471,-0.1491,-0.1511,-0.1551,-0.1562,-0.1586,-0.1596,-0.1648,-0.1659,-0.164,-0.1715,-0.1697,-0.1701,-0.1708,-0.1713,-0.1718,-0.17,-0.1636,0,0,0,0,0,-0.1312,-0.1342,-0.1381,-0.1419,-0.1433,-0.1466,-0.1486,-0.1507,-0.154,-0.1559,-0.1592,-0.1629,-0.1663,-0.1687,-0.1716,-0.1758,-0.1751,-0.1782,-0.1786,-0.179,-0.1782,-0.1797,-0.1802,-0.1754,-0.1754,-0.1754,0,0,-0.1319,-0.1348,-0.1368,-0.1418,-0.1442,-0.1468,-0.148,-0.1513,-0.1543,-0.1561,-0.1618,-0.1647,-0.1678,-0.1725,-0.175,-0.1741,-0.1801,-0.1794,-0.1796,-0.1786,-0.1801,-0.1805,-0.1809,-0.1756,-0.1756,-0.1755,0,0,-0.1326,-0.1374,-0.1392,-0.1418,-0.1458,-0.1481,-0.1495,-0.1536,-0.1565,-0.1616,-0.164,-0.1683,-0.1739,-0.1765,-0.1784,-0.1831,-0.1823,-0.1848,-0.1858,-0.1874,-0.1878,-0.1881,-0.1877,-0.1879,-0.1851,-0.1851,-0.1851,0,-0.1334,-0.1369,-0.1401,-0.1422,-0.1447,-0.1488,-0.1511,-0.1546,-0.1602,-0.1627,-0.1639,-0.1726,-0.1755,-0.1806,-0.1824,-0.1841,-0.1839,-0.1834,-0.1878,-0.1881,-0.1884,-0.1879,-0.1881,-0.1852,-0.1852,-0.1852,-0.1852,0,-0.134,-0.1381,-0.1393,-0.1438,-0.1468,-0.1496,-0.1543,-0.1585,-0.1627,-0.1658,-0.1723,-0.1763,-0.1809,-0.1833,-0.1844,-0.1886,-0.1875,-0.1879,-0.1859,-0.1889,-0.1883,-0.1885,-0.1854,-0.1854,-0.1853,-0.1853,0,0,-0.1319,-0.1385,-0.1392,-0.1418,-0.148,-0.1502,-0.156,-0.1613,-0.165,-0.1709,-0.1752,-0.1818,-0.1836,-0.1858,-0.1883,-0.1902,-0.1924,-0.1899,-0.1899,-0.1884,-0.1944,-0.1832,-0.1823,-0.1936,-0.1936,-0.1937,-0.1931,0,-0.1315,-0.1352,-0.1391,-0.1439,-0.1463,-0.1524,-0.157,-0.1628,-0.1681,-0.1734,-0.1784,-0.1832,-0.1847,-0.1872,-0.1895,-0.192,-0.1931,-0.1924,-0.1926,-0.1925,-0.1813,-0.1822,-0.1939,-0.1932,-0.1933,-0.1933,-0.1933,0,-0.1298,-0.133,-0.137,-0.1442,-0.1458,-0.1496,-0.1574,-0.1621,-0.1702,-0.1742,-0.1796,-0.1835,-0.1884,-0.1887,-0.1931,-0.1926,-0.1932,-0.1944,-0.1944,-0.1829,-0.1816,-0.1897,-0.1937,-0.1936,-0.1936,-0.1936,-0.1936,0,-0.1243,-0.1314,-0.1346,-0.1371,-0.1456,-0.1491,-0.1538,-0.162,-0.1661,-0.1742,-0.1776,-0.1839,-0.1872,-0.1898,-0.1927,-0.1931,-0.1958,-0.1968,-0.1869,-0.1862,-0.1955,-0.1952,-0.1983,-0.1983,-0.1983,-0.1983,-0.1983,0,-0.1208,-0.1237,-0.1326,-0.1341,-0.1385,-0.1456,-0.1506,-0.1565,-0.1646,-0.1683,-0.1768,-0.18,-0.1877,-0.1907,-0.1924,-0.1891,-0.1954,-0.1858,-0.1849,-0.1965,-0.1963,-0.1956,-0.1953,-0.1983,-0.1983,-0.1983,-0.1983,0,-0.1129,-0.1195,-0.1237,-0.1329,-0.1358,-0.1385,-0.1476,-0.1508,-0.1596,-0.1647,-0.1672,-0.1774,-0.1811,-0.1867,-0.1907,-0.1869,-0.1863,-0.1836,-0.1942,-0.1942,-0.1757,-0.1756,-0.1718,-0.1713,-0.171,-0.1707,-0.1705,0,-0.1083,-0.1095,-0.1202,-0.1231,-0.1273,-0.1328,-0.1362,-0.1463,-0.1497,-0.1616,-0.1627,-0.1703,-0.1757,-0.1717,-0.1791,-0.1796,-0.1789,-0.176,-0.1764,-0.1733,-0.1729,-0.1733,-0.1736,-0.1699,-0.1698,-0.1697,-0.1696,0,-0.0977,-0.103,-0.1068,-0.1132,-0.1179,-0.123,-0.1289,-0.1303,-0.1412,-0.1509,-0.1536,-0.1565,-0.1604,-0.1642,-0.1649,-0.1661,-0.1764,-0.1724,-0.1731,-0.1735,-0.171,-0.1711,-0.1718,-0.1684,-0.1686,-0.1687,-0.1688,0,-0.0892,-0.0898,-0.0959,-0.1006,-0.1078,-0.1113,-0.1162,-0.1202,-0.1249,-0.1386,-0.139,-0.1486,-0.1577,-0.1571,-0.1586,-0.1578,-0.1569,-0.1521,-0.1539,-0.1553,-0.1505,-0.1449,-0.1323,0,0,0,0,0,-0.0788,-0.0783,-0.0824,-0.0887,-0.0966,-0.1009,-0.1103,-0.116,-0.1268,-0.1246,-0.1315,-0.1349,-0.1379,-0.1439,-0.1401,-0.1526,-0.1577,-0.1476,-0.153,-0.1618,-0.1632,-0.1594,0,0,0,0,0,0,-0.072,-0.0738,-0.0772,-0.0774,-0.0806,-0.0875,-0.0938,-0.1018,-0.1021,-0.114,-0.1167,-0.1257,-0.1313,-0.1375,-0.1368,-0.1385,-0.139,-0.1542,-0.1538,-0.161,-0.1623,-0.1634,-0.1599,0,0,0,0,0]},{"header":{"parameterUnit":"m.s-1","parameterCategory":2,"la1":30.2991,"la2":30.254,"lo1":-89.0895,"lo2":-89.0444,"dy":0.0017,"dx":0.0017,"nx":28,"ny":28,"refTime":"2023-11-01T09:00:00:Z","depth":"4","parameterNumber":3,"parameterNumberName":"V-component_of_CURRENTS"},"data":[0,0,0,0,0,0,0,0,0,0,0,0,0,0,0,0,0,0,0,0,0,0,0,0,0,0,0,0,0,0,0,0,0,0,0,0,0,0,0,0,0,0,0,0,0,0,0,0,0,0,0,0,0,0,0,0,0,0,0.0269,0.0269,0,0.0273,0.0273,0.0273,0.0284,0.0284,0.0284,0.0284,0.0283,0.0283,0.0283,0,0,0,0,0,0,0,0,0,0,0,0,0,0.0355,0.0353,0.0269,0.0269,0.0269,0.0273,0.0273,0.0273,0.0284,0.0284,0.0284,0.0285,0.0283,0.0283,0.0283,0,0,0,0,0,0,0,0,0,0,0,0,0,0.0333,0.0352,0.0269,0.0275,0.0276,0.0273,0.0273,0.0273,0.0283,0.0284,0.0284,0.0285,0.0284,0.0283,0.0283,0.0272,0,0,0.0281,0.0281,0,0,0,0,0,0,0,0,0.0335,0.033,0.0274,0.0275,0.0275,0.0278,0.0303,0.0272,0.0283,0.028,0.0284,0.0285,0.0281,0.0281,0.028,0.0271,0.0271,0.0281,0.0281,0.0281,0.0281,0,0,0,0,0,0,0,0.0336,0.0331,0.027,0.0274,0.0275,0.0307,0.0303,0.0297,0.0278,0.028,0.0281,0.0282,0.0282,0.0281,0.028,0.0271,0.0281,0.0281,0.0281,0.0281,0.0235,0.0234,0,0,0,0,0,0,0.0331,0.0331,0.027,0.027,0.0307,0.0305,0.0301,0.0277,0.0278,0.0279,0.0282,0.0283,0.0281,0.0281,0.028,0.0249,0.0281,0.028,0.028,0.0236,0.0235,0.0234,0,0,0,0,0,0,0.0332,0.0324,0.027,0.0303,0.0298,0.0302,0.0275,0.0277,0.0279,0.0279,0.028,0.0283,0.0281,0.0281,0.0267,0.025,0.028,0.028,0.0237,0.0236,0.0234,0.0199,0,0,0,0,0,0,0.0334,0.0324,0.0306,0.0301,0.0296,0.0265,0.0275,0.0276,0.0279,0.028,0.0281,0.0281,0.0282,0.0268,0.0267,0.025,0.028,0.0238,0.0236,0.0235,0.0201,0.0196,0.0192,0,0,0,0,0,0.0337,0.0309,0.0304,0.0297,0.0269,0.0265,0.0264,0.027,0.0278,0.0275,0.0271,0.0281,0.0256,0.0266,0.0266,0.0248,0.0239,0.0237,0.0235,0.0203,0.0197,0.0192,0,0,0,0,0,0,0.0329,0.0307,0.0302,0.0266,0.0265,0.0267,0.0265,0.027,0.0265,0.0266,0.0269,0.0269,0.0249,0.0253,0.0265,0.0229,0.0249,0.0246,0.0225,0.0219,0.0215,0.0209,0.0279,0,0,0,0,0,0.0319,0.0295,0.0285,0.0257,0.0258,0.0262,0.0262,0.0264,0.0261,0.026,0.0258,0.0252,0.0238,0.0234,0.0225,0.0207,0.0215,0.0195,0.019,0.0186,0.018,0.0176,0.0171,0.0227,0.0227,0.0227,0,0,0.0307,0.0294,0.0279,0.0256,0.0257,0.0243,0.0263,0.0259,0.0243,0.026,0.0238,0.0237,0.023,0.0206,0.0198,0.0209,0.0175,0.0184,0.018,0.0176,0.0173,0.0168,0.0163,0.0225,0.0226,0.0226,0,0,0.0285,0.0262,0.0244,0.0238,0.0237,0.0234,0.0233,0.0232,0.0229,0.0209,0.0212,0.0202,0.0186,0.0174,0.0166,0.0132,0.0151,0.0131,0.0104,0.0099,0.0095,0.0091,0.0099,0.0096,0.0129,0.0129,0.0129,0,0.0276,0.0241,0.0241,0.0225,0.0215,0.0227,0.0208,0.0202,0.0194,0.0185,0.0197,0.0166,0.0166,0.0131,0.0119,0.0121,0.0128,0.0126,0.0094,0.009,0.0087,0.0096,0.0093,0.0127,0.0127,0.0128,0.0128,0,0.0248,0.0217,0.0209,0.0185,0.0174,0.0161,0.0152,0.0141,0.014,0.0136,0.011,0.0109,0.0092,0.0089,0.0093,0.0064,0.008,0.009,0.011,0.0079,0.009,0.0088,0.0124,0.0125,0.0126,0.0126,0,0,0.0237,0.0196,0.0193,0.0169,0.0151,0.0136,0.0107,0.0084,0.0062,0.006,0.0033,0.0015,0.0028,0.002,0.0026,0.0023,0.0011,0.0046,0.0046,0.0056,0.001,0.0042,0.0043,0.0018,0.0017,0.0016,0.0029,0,0.0218,0.0174,0.0159,0.011,0.0087,0.0076,0.0043,0.0023,0.0014,-0.0009,-0.0006,-0.0027,-0.0003,-0.001,-0.0011,0.0005,0.0002,0.0007,0.0035,0.0035,0.007,0.0041,0.0014,0.0027,0.0027,0.0026,0.0026,0,0.0207,0.0171,0.0125,0.0063,0.0052,0.0022,-0.0025,-0.0052,-0.0076,-0.0079,-0.009,-0.0083,-0.0092,-0.0065,-0.0053,-0.0049,-0.0027,-0.0009,-0.0008,0.0032,0.0063,0.0062,0.0023,0.0023,0.0023,0.0023,0.0024,0,0.0216,0.015,0.0109,0.0089,0.0026,-0.0004,-0.0039,-0.0072,-0.0101,-0.0121,-0.0136,-0.0137,-0.014,-0.0116,-0.0071,-0.0066,-0.0048,-0.0036,0.0013,0.0016,0.0001,0.0005,-0.0035,-0.0035,-0.0035,-0.0035,-0.0035,0,0.0209,0.018,0.0103,0.0082,0.0016,-0.0021,-0.0082,-0.0105,-0.0145,-0.0184,-0.0171,-0.0192,-0.0154,-0.0135,-0.009,-0.0039,-0.0061,0.0001,0.0016,-0.0014,-0.0012,0.0,0.0004,-0.0034,-0.0034,-0.0035,-0.0035,0,0.0251,0.0199,0.0148,0.0062,0.0023,-0.0016,-0.0112,-0.0156,-0.0181,-0.023,-0.0238,-0.0237,-0.0208,-0.0159,-0.0115,-0.0066,-0.0019,0.0004,-0.0026,-0.0012,0.0052,0.0053,0.0049,0.005,0.0051,0.0052,0.0053,0,0.0273,0.0252,0.0149,0.0094,0.0053,-0.0029,-0.0095,-0.016,-0.0208,-0.0258,-0.0281,-0.027,-0.0258,-0.0175,-0.0109,-0.0019,-0.0002,0.0028,0.0031,0.0042,0.0057,0.0058,0.0058,0.0054,0.0055,0.0055,0.0055,0,0.0325,0.0297,0.0259,0.0144,0.0056,-0.0058,-0.0154,-0.0199,-0.0275,-0.0295,-0.0326,-0.0289,-0.0253,-0.0179,-0.0102,-0.0036,0.0012,0.0038,0.0036,0.0039,0.0049,0.0063,0.0062,0.0058,0.0058,0.0058,0.0057,0,0.0382,0.0373,0.0312,0.021,0.0085,-0.0061,-0.0132,-0.0223,-0.0281,-0.0345,-0.035,-0.0314,-0.0297,-0.0188,-0.0118,-0.0045,-0.0028,-0.0001,-0.0001,-0.0003,-0.0012,-0.0008,-0.0011,0,0,0,0,0,0.0434,0.0433,0.036,0.0227,0.0093,0.0004,-0.0158,-0.023,-0.0314,-0.034,-0.0351,-0.0319,-0.0226,-0.0187,-0.0111,-0.0084,0.0,0.0011,0.0035,0.0077,0.0073,0.0075,0,0,0,0,0,0,0.047,0.045,0.0408,0.0262,0.0161,-0.0003,-0.012,-0.0201,-0.0233,-0.0291,-0.0251,-0.0252,-0.0165,-0.0241,-0.0081,-0.0062,-0.0031,0.0048,0.0051,0.0079,0.0075,0.0072,0.0073,0,0,0,0,0]}]]